Powrót do katalogu

COSMOS 1691 DEB

AktywnyPO
NORAD 18282·DEBRIS·🇷🇺 Russia

Wystrzelony Oct 9, 1985 z Plesetsk Cosmodrome

Loading…

Następne Przeloty (najbliższe 24 godziny)

TLE

ŚwieżeSource: Space-Track

Epoka: Sep 14, 2026, 02:10 UTC

1 18282U 85094T   26257.09078622  .00000532  00000-0  23248-2 0  9994
2 18282  82.6214 114.2802 0022018 306.7077 208.6943 12.78868392897489

Śledź COSMOS 1691 DEB w czasie rzeczywistym z AllMySat

Download on the App Store